AJISAI (EGS)

Last updated on Sat Apr 13 2024 01:02:09 GMT+0100 (British Summer Time)

1 16908U 86061A 24103.54040722 -.00000108 00000+0 -76754-4 0 9992 2 16908 50.0090 73.9670 0011344 315.4693 152.0181 12.44504935381317
UTC large
Height (km)
Speed (km/s)
/
Latitude / Longitude
Inclination (degrees)
Orbital Period (minutes)
Azimuth
Elevation
Range (km)
Doppler Factor

Next 0 passes for location: London (51.5072 / 0.1276)

Sorry there are no passes over London.